Weather History for Odessa, TX

Change the Weather History Date:

Tuesday, March 12, 2013

  Actual Average (KMAF) Record (KMAF)
Temperature  
Mean Temperature 52 °F 55 °F  
Max Temperature 66 °F 69 °F 95 °F (1989)
Min Temperature 41 °F 40 °F 15 °F (1948)
Degree Days  
Heating Degree Days 12 11  
Month to date heating degree days 144  
Since 1 July heating degree days 2381  
Cooling Degree Days 0 0  
Month to date cooling degree days 0  
Year to date cooling degree days 2  
Growing Degree Days 2 (Base 50)    
Moisture  
Dew Point 20 °F    
Average Humidity 28    
Maximum Humidity 39    
Minimum Humidity 19    
Precipitation  
Precipitation 0.00 in 0.02 in 0.71 in (2004)
Month to date precipitation 0.23  
Year to date precipitation 1.50  
Snow  
Snow 0.00 in - - ()
Month to date snowfall  
Since 1 July snowfall  
Snow Depth -    
Sea Level Pressure  
Sea Level Pressure 30.08 in    
Wind  
Wind Speed 9 mph (North)    
Max Wind Speed 20 mph    
Max Gust Speed 25 mph    
Visibility 10 miles    
Events      
T = Trace of Precipitation, MM = Missing Value Source: NWS Daily Summary

Daily Weather History Graph

Daily Weather History Graph

Search for Another Location

Airport:

Trip Planner

Search our weather history database for the weather conditions in past years. The results will help you decide how hot, cold, wet, or windy it might be!

Date:

Astronomy

Mar. 12, 2013 Rise Set
Actual Time 8:03 AM CDT 7:55 PM CDT
Civil Twilight 7:38 AM CDT 8:20 PM CDT
Nautical Twilight 7:10 AM CDT 8:48 PM CDT
Astronomical Twilight 6:42 AM CDT 9:16 PM CDT
Moon 8:16 AM CDT (3/12) 9:05 PM CDT (3/12)
Length of Visible Light 12h 41m
Length of Day
11h 52m
New Moon, 1% of the Moon is Illuminated
Mar 12
New Moon
Mar 19
First Quarter
Mar 27
Full
Apr 2
Last Quarter
Apr 10
New

Hourly Weather History & Observations

Time (CDT) Temp. Windchill Dew Point Humidity Pressure Visibility Wind Dir Wind Speed Gust Speed Precip Events Conditions
12:53 AM 52.0 °F - 12.9 °F 21% 29.93 in 10.0 mi SSW 6.9 mph - N/A   Clear
1:53 AM 50.0 °F - 12.9 °F 23% 29.93 in 10.0 mi SSW 5.8 mph - N/A   Clear
2:53 AM 48.0 °F - 12.9 °F 24% 29.93 in 10.0 mi SW 5.8 mph - N/A   Clear
3:53 AM 46.9 °F - 14.0 °F 27% 29.92 in 10.0 mi WSW 6.9 mph - N/A   Clear
4:53 AM 46.9 °F - 15.1 °F 28% 29.92 in 10.0 mi West 4.6 mph - N/A   Clear
5:53 AM 44.1 °F 41.5 °F 14.0 °F 30% 29.93 in 10.0 mi West 4.6 mph - N/A   Clear
6:53 AM 42.1 °F 40.2 °F 15.1 °F 34% 29.95 in 10.0 mi WSW 3.5 mph - N/A   Clear
7:53 AM 41.0 °F 39.0 °F 15.1 °F 35% 29.98 in 10.0 mi WNW 3.5 mph - N/A   Clear
8:53 AM 48.9 °F - 17.1 °F 28% 30.03 in 10.0 mi NNW 15.0 mph - N/A   Clear
10:53 AM 51.1 °F - 27.0 °F 39% 30.12 in 10.0 mi North 19.6 mph - N/A   Clear
11:53 AM 55.0 °F - 27.0 °F 34% 30.13 in 10.0 mi NNE 18.4 mph - N/A   Clear
12:53 PM 57.0 °F - 26.1 °F 30% 30.14 in 10.0 mi North 16.1 mph 25.3 mph N/A   Clear
1:53 PM 60.1 °F - 25.0 °F 26% 30.14 in 10.0 mi NNE 17.3 mph 23.0 mph N/A   Clear
2:53 PM 64.0 °F - 24.1 °F 22% 30.13 in 10.0 mi North 16.1 mph 24.2 mph N/A   Clear
3:53 PM 64.0 °F - 24.1 °F 22% 30.12 in 10.0 mi NNE 12.7 mph 23.0 mph N/A   Clear
4:53 PM 64.9 °F - 23.0 °F 20% 30.12 in 10.0 mi NNE 10.4 mph 23.0 mph N/A   Clear
5:53 PM 64.9 °F - 21.9 °F 19% 30.13 in 10.0 mi NE 15.0 mph 21.9 mph N/A   Clear
6:53 PM 63.0 °F - 21.0 °F 20% 30.15 in 10.0 mi NE 13.8 mph - N/A   Clear
7:53 PM 57.9 °F - 21.0 °F 24% 30.18 in 10.0 mi NE 12.7 mph - N/A   Clear
8:53 PM 53.1 °F - 21.0 °F 29% 30.21 in 10.0 mi NE 10.4 mph - N/A   Clear
9:53 PM 50.0 °F - 21.0 °F 32% 30.25 in 10.0 mi NE 11.5 mph - N/A   Clear
10:53 PM 48.9 °F - 21.0 °F 33% 30.28 in 10.0 mi NE 10.4 mph - N/A   Clear
11:53 PM 45.0 °F 41.2 °F 21.0 °F 39% 30.30 in 10.0 mi NE 6.9 mph - N/A   Clear